Weather reports worldwide

Advertisment
Le Touquet, France (7003): temperature & dewpoint: 16.09.2018 23:00:00 - 22.09.2018 23:00:00 (CEST)Le Touquet, France (7003): temperature 5cm: 16.09.2018 23:00:00 - 22.09.2018 23:00:00 (CEST)Le Touquet, France (7003): wind speed & gusts: 16.09.2018 23:00:00 - 22.09.2018 23:00:00 (CEST)Le Touquet, France (7003): wind direction: 16.09.2018 23:00:00 - 22.09.2018 23:00:00 (CEST)Le Touquet, France (7003): reduced air pressure: 16.09.2018 23:00:00 - 22.09.2018 23:00:00 (CEST)Le Touquet, France (7003): visibility: 16.09.2018 23:00:00 - 22.09.2018 23:00:00 (CEST)Le Touquet, France (7003): sunshine duration: 16.09.2018 23:00:00 - 22.09.2018 23:00:00 (CEST)Le Touquet, France (7003): precipitation: 16.09.2018 23:00:00 - 22.09.2018 23:00:00 (CEST)
Date & Time tt [°C] td [°C] tt 5cm [°C] ff [km/h] ff [kn] fx [km/h] fx [kn] dd ppp [hPa] vv [km] sd [min] rr [mm]
22.09.2018 23:00:00 11,1 10,6 10,7 25 13 39 21 E 1013,1 3,9 0 0,6
22.09.2018 22:00:00 11,0 10,7 10,6 22 12 32 17 ESE 1014,2 3,0 0 4,0
22.09.2018 21:00:00 10,8 10,3 10,4 20 11 28 15 ESE 1015,1 3,4 0 2,3
22.09.2018 20:00:00 10,8 10,2 10,5 13 7 26 14 SE 1016,8 3,5 0 1,4
22.09.2018 19:00:00 11,0 10,2 10,8 13 7 17 9 SE 1017,3 3,7 0 0,8
22.09.2018 18:00:00 10,9 9,8 10,8 8 4 28 15 SSE 1018,3 5 0 2,0
22.09.2018 17:00:00 12,4 10,3 11,6 0 0 25 13 N 1019,0 7 0 1,0
22.09.2018 16:00:00 12,7 10,4 12,0 12 7 29 15 W 1020,2 11 0 0,4
22.09.2018 15:00:00 13,0 11,1 12,2 6 3 26 14 WNW 1021,1 14 0 0,6
22.09.2018 14:00:00 12,9 11,0 12,4 18 10 37 20 SW 1021,4 10 0 0,4
22.09.2018 13:00:00 14,8 10,0 15,7 16 9 28 15 WNW 1021,0 54 0 0,0
22.09.2018 12:00:00 14,0 10,0 12,8 5 3 38 20 NW 1020,6 48 0 0,0
22.09.2018 11:00:00 13,8 11,0 12,7 11 6 33 18 SW 1020,7 7 0 0,6
22.09.2018 10:00:00 14,0 11,0 12,2 12 7 34 18 WNW 1020,6 49 0 0,6
22.09.2018 09:00:00 14,0 10,8 11,8 13 7 31 17 NW 1020,5 12 0 0,6
22.09.2018 08:00:00 14,5 10,5 11,5 9 5 26 14 W 1020,3 16 0 0,0
22.09.2018 07:00:00 14,3 10,3 11,4 9 5 29 16 W 1020,2 53 0 0,8
22.09.2018 06:00:00 15,2 9,1 12,5 11 6 26 14 W 1020,4 18 0 0,0
22.09.2018 05:00:00 15,2 8,0 12,7 12 7 30 16 W 1020,3 60 0 0,0
22.09.2018 04:00:00 15,5 7,5 12,1 15 8 29 16 W 1020,3 60 0 0,0
22.09.2018 03:00:00 15,5 7,8 11,6 15 8 28 15 W 1020,5 59 0 0,0
22.09.2018 02:00:00 15,4 7,4 11,8 16 9 32 17 WNW 1020,1 56 0 0,0
22.09.2018 01:00:00 15,6 7,6 12,1 19 11 37 20 WNW 1020,0 55 0 0,0
22.09.2018 00:00:00 15,6 6,8 12,1 24 13 45 24 WNW 1019,4 52 0 0,0
21.09.2018 23:00:00 15,8 8,3 12,3 18 10 50 27 WNW 1018,6 47 0 0,0
21.09.2018 22:00:00 16,4 8,1 14,2 27 14 59 32 W 1018,2 19 0 0,0
21.09.2018 21:00:00 15,7 9,8 14,4 29 16 67 36 W 1017,6 17 0 0,0
21.09.2018 20:00:00 15,8 9,0 14,3 29 16 65 35 W 1016,4 18 23 0,0
21.09.2018 19:00:00 16,2 8,4 15,4 30 16 63 34 W 1015,5 19 20 0,0
21.09.2018 18:00:00 16,5 7,7 16,0 31 17 62 34 W 1015,1 18 37 0,0
21.09.2018 17:00:00 16,9 7,5 16,2 34 18 62 34 W 1014,7 16 46 0,0
21.09.2018 16:00:00 16,6 7,8 16,3 29 16 60 32 W 1014,1 20 38 0,0
21.09.2018 15:00:00 17,1 7,7 16,7 32 18 61 33 W 1013,4 19 40 0,0
21.09.2018 14:00:00 16,0 7,2 15,0 30 16 60 32 W 1012,7 20 35 0,0
21.09.2018 13:00:00 15,7 6,4 17,1 29 15 56 30 W 1012,1 36 51 0,0
21.09.2018 12:00:00 15,0 7,8 13,1 25 13 61 33 W 1011,6 21 44 0,0
21.09.2018 11:00:00 14,3 6,4 13,6 29 16 63 34 W 1010,5 43 25 0,0
21.09.2018 10:00:00 15,2 8,0 13,1 26 14 56 30 WNW 1008,9 60 14 0,0
21.09.2018 09:00:00 14,9 9,9 13,2 30 16 63 34 WNW 1007,2 33 0 0,2
21.09.2018 08:00:00 16,5 10,6 13,2 27 15 58 32 W 1005,6 18 0 0,0
21.09.2018 07:00:00 16,2 11,4 13,4 32 17 57 31 W 1005,0 17 0 0,0
21.09.2018 06:00:00 15,7 14,2 14,6 27 15 76 41 W 1003,8 6 0 2,6
21.09.2018 05:00:00 18,6 15,5 17,2 24 13 50 27 SSW 1002,2 8 0 0,0
21.09.2018 04:00:00 19,4 14,6 18,1 19 11 48 26 SSW 1003,0 42 0 0,0
21.09.2018 03:00:00 19,4 14,2 18,3 22 12 50 27 S 1003,9 20 0 0,0
21.09.2018 02:00:00 19,7 14,1 18,2 24 13 49 27 SSW 1005,5 41 0 0,0
21.09.2018 01:00:00 19,9 14,5 17,8 20 11 40 21 SSW 1006,6 20 0 0,0
21.09.2018 00:00:00 19,9 14,7 17,8 16 9 38 20 SSW 1007,3 47 0 0,0
20.09.2018 23:00:00 20,2 14,8 18,1 16 8 31 17 SSW 1008,3 20 0 0,0
20.09.2018 22:00:00 20,4 16,0 16,7 9 5 20 11 SSW 1009,0 42 0 0,0
20.09.2018 21:00:00 18,4 15,5 16,5 9 5 11 6 SE 1009,4 20 0 0,0
20.09.2018 20:00:00 19,6 15,5 16,3 3 2 14 7 SSW 1010,5 14 5 0,0
20.09.2018 19:00:00 21,0 15,5 20,0 8 4 17 9 SSW 1011,0 46 16 0,0
20.09.2018 18:00:00 20,9 15,7 21,0 7 4 20 11 W 1012,2 20 12 0,0
20.09.2018 17:00:00 22,5 15,6 22,4 14 7 27 14 WSW 1013,0 20 57 0,0
20.09.2018 16:00:00 22,8 15,1 22,5 15 8 29 16 SW 1013,5 19 29 0,0
20.09.2018 15:00:00 22,1 15,7 23,6 18 10 35 19 WSW 1014,4 16 51 0,0
20.09.2018 14:00:00 21,4 15,7 22,9 21 12 41 22 SW 1015,2 15 57 0,0
20.09.2018 13:00:00 20,8 16,0 22,0 21 11 45 24 SSW 1015,8 16 54 0,0
20.09.2018 12:00:00 20,0 16,0 20,7 24 13 42 23 SW 1016,4 18 51 0,0
20.09.2018 11:00:00 19,4 16,4 19,3 18 10 41 22 SW 1016,6 18 36 0,0
20.09.2018 10:00:00 18,9 15,9 17,7 17 9 38 21 SSW 1016,6 17 25 0,0
20.09.2018 09:00:00 18,0 15,8 16,8 17 9 31 17 SSW 1016,8 16 0 0,0
20.09.2018 08:00:00 17,7 15,5 16,2 18 10 32 18 SW 1016,7 18 1 0,0
20.09.2018 07:00:00 17,6 15,6 16,2 13 7 28 15 SW 1016,5 16 0 0,0
20.09.2018 06:00:00 18,0 16,0 16,6 15 8 28 15 SW 1016,5 16 0 0,0
20.09.2018 05:00:00 18,2 16,0 16,7 14 8 25 13 SW 1016,8 17 0 0,0
20.09.2018 04:00:00 18,7 15,9 17,4 11 6 21 12 SSW 1016,8 19 0 0,0
20.09.2018 03:00:00 18,9 17,0 17,4 4 2 12 6 SW 1017,0 15 0 0,0
20.09.2018 02:00:00 18,4 16,6 17,5 7 4 15 8 SSE 1017,2 13 0 0,0
20.09.2018 01:00:00 18,8 16,6 16,8 5 3 11 6 SW 1017,5 15 0 0,0
20.09.2018 00:00:00 18,8 16,4 17,1 5 3 14 8 SW 1017,6 15 0 0,0
19.09.2018 23:00:00 19,0 16,6 17,5 7 4 15 8 WSW 1018,0 15 0 0,0
19.09.2018 22:00:00 19,3 16,3 16,8 8 4 21 12 W 1018,0 18 0 0,0
19.09.2018 21:00:00 19,7 16,3 17,7 8 5 24 13 WSW 1017,7 19 0 0,0
19.09.2018 20:00:00 20,5 15,9 19,1 11 6 24 13 SW 1017,2 17 1 0,0
19.09.2018 19:00:00 21,0 15,8 20,0 15 8 31 17 SW 1017,1 43 46 0,0
19.09.2018 18:00:00 21,4 16,1 21,5 15 8 35 19 SW 1017,1 20 40 0,0
19.09.2018 17:00:00 21,4 16,1 22,0 19 10 34 18 SW 1017,1 19 11 0,0
19.09.2018 16:00:00 22,1 16,4 22,0 17 9 41 22 SW 1017,3 19 25 0,0
19.09.2018 15:00:00 21,7 15,8 20,5 22 12 43 23 SW 1017,2 20 31 0,0
19.09.2018 14:00:00 20,4 15,4 21,4 22 12 48 26 SW 1017,2 19 40 0,0
19.09.2018 13:00:00 20,4 15,6 22,3 28 15 46 25 SW 1017,0 18 56 0,0
19.09.2018 12:00:00 19,9 15,9 19,9 24 13 44 24 SW 1017,4 18 37 0,0
19.09.2018 11:00:00 19,0 15,7 17,9 18 10 36 19 SW 1017,2 16 17 0,0
19.09.2018 10:00:00 18,0 15,3 16,3 16 8 26 14 SSW 1016,6 12 31 0,0
19.09.2018 09:00:00 16,1 14,3 15,0 11 6 17 9 SE 1016,2 16 42 0,0
19.09.2018 08:00:00 17,2 14,8 15,1 11 6 23 13 SSW 1015,8 14 3 0,2
19.09.2018 07:00:00 17,2 15,2 12,9 11 6 22 12 SSW 1015,5 15 0 0,0
19.09.2018 06:00:00 14,3 13,8 12,6 5 3 9 5 SE 1015,4 12 0 0,0
19.09.2018 05:00:00 13,3 12,8 12,3 6 3 10 6 SE 1015,4 12 0 0,0
19.09.2018 04:00:00 13,4 12,9 10,8 5 3 9 5 SSE 1015,5 10 0 0,0
19.09.2018 03:00:00 13,3 12,8 10,5 3 2 9 5 S 1015,5 10 0 0,0
19.09.2018 02:00:00 13,7 13,1 10,6 4 2 7 4 SE 1015,5 11 0 0,0
19.09.2018 01:00:00 13,9 13,3 12,4 8 5 13 7 SE 1015,6 11 0 0,0
19.09.2018 00:00:00 14,6 14,0 12,7 5 3 9 5 SSE 1015,5 9 0 0,0
18.09.2018 23:00:00 14,6 13,6 11,8 9 5 11 6 SE 1015,5 9 0 0,0
18.09.2018 22:00:00 16,3 14,7 12,4 4 2 9 5 WSW 1015,6 10 0 0,0
18.09.2018 21:00:00 18,1 15,0 14,8 6 4 20 11 W 1015,6 17 0 0,0
18.09.2018 20:00:00 18,6 14,9 16,4 13 7 25 14 W 1015,4 17 35 0,0
18.09.2018 19:00:00 19,7 15,1 19,0 14 7 32 17 W 1015,1 16 46 0,0
18.09.2018 18:00:00 19,7 15,1 20,0 19 11 31 17 WSW 1015,1 17 49 0,0
18.09.2018 17:00:00 19,6 14,4 20,2 22 12 44 24 W 1015,0 18 3 0,0
18.09.2018 16:00:00 19,6 15,5 20,4 24 13 51 27 W 1014,6 14 29 0,0
18.09.2018 15:00:00 20,1 15,3 21,8 27 14 46 25 SW 1014,3 16 34 0,0
18.09.2018 14:00:00 21,0 14,9 21,7 27 15 48 26 WSW 1014,3 15 51 0,0
18.09.2018 13:00:00 20,1 15,7 20,0 25 14 50 27 WSW 1013,5 17 7 0,0
18.09.2018 12:00:00 20,1 15,7 21,0 22 12 52 28 SW 1012,7 18 30 0,0
18.09.2018 11:00:00 20,1 16,1 20,4 23 13 42 23 SW 1011,9 19 51 0,0
18.09.2018 10:00:00 19,7 16,3 18,4 18 10 35 19 SW 1011,5 20 13 0,0
18.09.2018 09:00:00 19,1 16,0 17,5 18 10 34 19 SW 1010,9 33 0 0,0
18.09.2018 08:00:00 18,5 16,3 16,5 17 9 34 18 SW 1010,7 20 0 0,0
18.09.2018 07:00:00 18,3 16,1 14,8 17 9 34 19 SW 1010,4 20 0 0,0
18.09.2018 06:00:00 18,7 14,8 10,4 13 7 22 12 WSW 1010,1 50 0 0,0
18.09.2018 05:00:00 15,5 10,0 10,9 6 3 14 7 SSE 1009,5 60 0 0,0
18.09.2018 04:00:00 16,4 9,8 12,4 10 5 18 10 SE 1009,4 60 0 0,0
18.09.2018 03:00:00 16,4 9,8 12,4 10 5 14 7 SE 1009,7 60 0 0,0
18.09.2018 02:00:00 16,5 9,7 12,0 11 6 15 8 SE 1010,0 60 0 0,0
18.09.2018 01:00:00 15,7 10,0 11,9 11 6 14 8 ESE 1010,5 60 0 0,0
18.09.2018 00:00:00 15,5 10,5 12,5 11 6 18 10 ESE 1010,9 60 0 0,0
17.09.2018 23:00:00 16,2 10,9 13,3 14 8 18 10 ESE 1011,3 60 0 0,0
17.09.2018 22:00:00 17,3 11,1 13,5 12 6 16 9 SE 1011,8 60 0 0,0
17.09.2018 21:00:00 18,9 11,2 13,8 10 5 13 7 SE 1012,3 60 0 0,0
17.09.2018 20:00:00 20,9 11,2 15,2 10 6 13 7 SE 1012,5 60 37 0,0
17.09.2018 19:00:00 24,4 11,0 19,3 7 4 25 14 S 1013,3 58 60 0,0
17.09.2018 18:00:00 25,7 9,9 23,4 14 8 23 12 S 1013,6 57 60 0,0
17.09.2018 17:00:00 25,2 10,6 22,8 10 5 17 9 WSW 1014,4 47 60 0,0
17.09.2018 16:00:00 25,0 10,5 23,2 14 8 25 14 WSW 1015,4 32 60 0,0
17.09.2018 15:00:00 25,6 10,2 26,5 12 6 25 14 S 1016,2 31 60 0,0
17.09.2018 14:00:00 24,4 12,4 25,8 13 7 23 12 SSE 1016,9 28 60 0,0
17.09.2018 13:00:00 23,0 12,0 24,4 13 7 21 12 SSE 1017,5 25 60 0,0
17.09.2018 12:00:00 21,5 12,9 19,5 8 5 16 9 SSE 1018,2 26 60 0,0
17.09.2018 11:00:00 17,1 13,2 14,8 9 5 15 8 ESE 1018,8 29 60 0,0
17.09.2018 10:00:00 13,9 11,1 10,9 13 7 17 9 SE 1019,0 32 60 0,0
17.09.2018 09:00:00 10,9 9,5 8,5 9 5 11 6 SE 1019,2 31 57 0,0
17.09.2018 08:00:00 9,7 8,8 7,4 9 5 12 6 SE 1019,1 39 6 0,0
17.09.2018 07:00:00 9,1 8,2 7,7 12 6 15 8 SE 1019,1 28 0 0,0
17.09.2018 06:00:00 9,9 9,0 7,9 6 3 13 7 SSE 1019,0 43 0 0,0
17.09.2018 05:00:00 9,8 8,9 8,1 6 4 12 6 SSE 1019,1 36 0 0,0
17.09.2018 04:00:00 9,7 8,6 8,3 9 5 11 6 SSE 1019,7 34 0 0,0
17.09.2018 03:00:00 10,5 9,3 8,4 6 4 9 5 SSE 1020,1 45 0 0,0
17.09.2018 02:00:00 10,9 9,7 8,1 7 4 9 5 SSE 1020,0 43 0 0,0
17.09.2018 01:00:00 11,5 9,9 8,0 7 4 9 5 SSE 1020,1 45 0 0,2
17.09.2018 00:00:00 11,9 10,5 6,8 6 4 10 5 SSE 1020,2 49 0 0,0
16.09.2018 23:00:00 11,8 10,5 7,6 4 2 8 5 SSE 1020,3 48 0 0,0

tt = temperature
td = dewpoint
tt 5cm = temperature 5cm
ff = wind speed
fx = gusts
dd = wind direction
ppp = reduced air pressure
vv = visibility
sd = sunshine duration
rr = precipitation

Next stations